Williston, ND

5:06 PM CST on November 24, 2017 (GMT -0600)
Sloulin International

Weather History for KISN - January, 2014

Change the Weather History Date:

Wednesday, January 1, 2014

  Actual Average Record
Temperature  
Mean Temperature 1 °F 11 °F  
Max Temperature 3 °F 22 °F 48 °F (1998)
Min Temperature -2 °F 0 °F -33 °F (1982)
Degree Days  
Heating Degree Days 64 54  
Month to date heating degree days 64 54  
Since 1 July heating degree days 3913 3801  
Cooling Degree Days 0 0  
Month to date cooling degree days 0 0  
Year to date cooling degree days 0 0  
Moisture  
Dew Point -5 °F    
Average Humidity 80    
Maximum Humidity 87    
Minimum Humidity 72    
Precipitation  
Precipitation 0.02 in 0.02 in 0.52 in (1954)
Month to date precipitation 0.02 0.02  
Year to date precipitation 0.02 0.02  
Snow  
Snow 0.00 in - - ()
Snow Depth -    
Sea Level Pressure  
Sea Level Pressure 30.39 in    
Wind  
Wind Speed 2 mph (NE)    
Max Wind Speed 10 mph    
Max Gust Speed 13 mph    
Visibility 6 miles    
Events Snow    
T = Trace of Precipitation, MM = Missing Value Source: NWS Daily Summary

Daily Weather History Graph

Daily Weather History Graph

Search for Another Location

Airport or City:

Trip Planner

Search our weather history database for the weather conditions in past years. The results will help you decide how hot, cold, wet, or windy it might be!

Date:

Astronomy

Jan. 01, 2014 Rise Set
Actual Time 8:45 AM CST 5:11 PM CST
Civil Twilight 8:08 AM CST 5:47 PM CST
Nautical Twilight 7:29 AM CST 6:27 PM CST
Astronomical Twilight 6:51 AM CST 7:05 PM CST
Moon 8:32 AM CST (1/1) 6:05 PM CST (1/1)
Length of Visible Light 9h 39m
Length of Day
8h 26m
New Moon, 0% of the Moon is Illuminated
Jan 1
New Moon
Jan 7
First Quarter
Jan 15
Full
Jan 23
Last Quarter
Jan 30
New

Hourly Weather History & Observations

Time (CST) Temp. Windchill Dew Point Humidity Pressure Visibility Wind Dir Wind Speed Gust Speed Precip Events Conditions
12:52 AM -0.9 °F - -7.1 °F 75% 30.34 in 6.0 mi Calm Calm - 0.00 in Snow Light Snow
1:01 AM -0.4 °F -10.4 °F -7.6 °F 72% 30.15 in 6.0 mi SE 4.6 mph - 0.00 in Snow Light Snow
1:52 AM -0.0 °F -9.9 °F -7.1 °F 72% 30.33 in 6.0 mi ESE 4.6 mph - 0.00 in Snow Light Snow
2:22 AM -0.4 °F -8.3 °F -5.8 °F 78% 30.14 in 2.5 mi SE 3.5 mph - 0.01 in Snow Light Snow
2:32 AM -0.4 °F -8.3 °F -7.6 °F 72% 30.15 in 4.0 mi South 3.5 mph - 0.01 in Snow Light Snow
2:52 AM -0.0 °F - -6.0 °F 76% 30.34 in 4.0 mi Calm Calm - 0.01 in Snow Light Snow
3:52 AM -0.0 °F - -5.1 °F 79% 30.35 in 5.0 mi Calm Calm - 0.00 in Snow Light Snow
4:52 AM 1.0 °F - -5.1 °F 75% 30.35 in 5.0 mi Calm Calm - 0.00 in Snow Light Snow
5:52 AM 1.0 °F - -5.1 °F 75% 30.38 in 9.0 mi Calm Calm - 0.00 in   Overcast
6:52 AM 1.0 °F - -5.1 °F 75% 30.40 in 10.0 mi Calm Calm - N/A   Overcast
7:52 AM 1.0 °F - -5.1 °F 75% 30.42 in 10.0 mi Calm Calm - N/A   Overcast
8:52 AM -0.0 °F -7.9 °F -5.1 °F 79% 30.46 in 10.0 mi North 3.5 mph - N/A   Overcast
9:52 AM -0.0 °F -11.6 °F -5.1 °F 79% 30.50 in 3.0 mi North 5.8 mph - 0.00 in Snow Light Snow
10:52 AM 1.0 °F -8.7 °F -5.1 °F 75% 30.51 in 6.0 mi North 4.6 mph - 0.00 in   Haze
11:43 AM 1.4 °F -9.9 °F -5.8 °F 72% 30.34 in 10.0 mi North 5.8 mph - N/A   Overcast
11:52 AM 1.9 °F -9.2 °F -6.0 °F 69% 30.51 in 10.0 mi North 5.8 mph - N/A   Overcast
12:52 PM 1.9 °F -9.2 °F -6.0 °F 69% 30.51 in 10.0 mi NNW 5.8 mph - N/A   Overcast
1:52 PM 1.9 °F -11.8 °F -6.0 °F 69% 30.51 in 10.0 mi NNW 8.1 mph - N/A   Mostly Cloudy
2:52 PM 1.9 °F -11.8 °F -6.0 °F 69% 30.49 in 10.0 mi North 8.1 mph - N/A   Mostly Cloudy
3:52 PM 1.9 °F - -6.0 °F 69% 30.50 in 10.0 mi Calm Calm - N/A   Overcast
4:52 PM 1.9 °F - -6.0 °F 69% 30.50 in 4.0 mi Calm Calm - 0.00 in Snow Light Snow
5:05 PM 1.4 °F -6.2 °F -5.8 °F 72% 30.34 in 1.8 mi East 3.5 mph - 0.00 in Snow Light Snow
5:11 PM 1.4 °F -6.2 °F -5.8 °F 72% 30.33 in 1.5 mi ESE 3.5 mph - 0.00 in Snow Light Snow
5:16 PM 1.4 °F -6.2 °F -5.8 °F 72% 30.33 in 2.0 mi ESE 3.5 mph - 0.00 in Snow Light Snow
5:23 PM 1.4 °F -6.2 °F -5.8 °F 72% 30.33 in 3.0 mi ESE 3.5 mph - 0.00 in Snow Light Snow
5:52 PM 1.9 °F - -4.0 °F 76% 30.50 in 5.0 mi Calm Calm - 0.00 in Snow Light Snow
6:12 PM 1.4 °F - -5.8 °F 72% 30.33 in 2.5 mi Calm Calm - 0.00 in Snow Light Snow
6:21 PM 1.4 °F - -4.0 °F 78% 30.33 in 3.0 mi Calm Calm - 0.00 in Snow Light Snow
6:52 PM 1.9 °F - -4.0 °F 76% 30.49 in 6.0 mi Calm Calm - 0.00 in Snow Light Snow
7:52 PM 1.9 °F - -2.9 °F 80% 30.49 in 5.0 mi Calm Calm - 0.00 in Snow Light Snow
8:30 PM 1.4 °F - -2.2 °F 85% 30.31 in 2.0 mi Calm Calm - 0.01 in Snow Light Snow
8:35 PM 1.4 °F - -2.2 °F 85% 30.31 in 1.5 mi Calm Calm - 0.01 in Snow Light Snow
8:45 PM 1.4 °F - -2.2 °F 85% 30.31 in 2.0 mi Calm Calm - 0.01 in Snow Light Snow
8:52 PM 1.9 °F - -2.9 °F 80% 30.48 in 2.0 mi Calm Calm - 0.01 in Snow Light Snow
9:05 PM 1.4 °F - -2.2 °F 85% 30.31 in 3.0 mi Calm Calm - 0.00 in Snow Light Snow
9:46 PM 1.4 °F - -2.2 °F 85% 30.31 in 10.0 mi Calm Calm - 0.00 in   Overcast
9:52 PM 1.9 °F - -2.9 °F 80% 30.48 in 10.0 mi Calm Calm - 0.00 in   Overcast
10:52 PM 1.9 °F -5.6 °F -2.9 °F 80% 30.46 in 9.0 mi NE 3.5 mph - N/A   Overcast
11:52 PM 1.9 °F - -4.0 °F 76% 30.47 in 10.0 mi Calm Calm - N/A   Overcast